User: anonymous   Login
Location: Home
(42.5358°N, 72.7383°W)
Time: 00:12:44
(UTC-05:00)
Language:

ZACube-1 - Orbit

View from above orbital plane
View from above orbital plane
View from above satellite
View from above satellite

Ground track
Ground track

The orbit data is extracted from the following two-line orbital elements,

1 39417U 13066B   22026.44943362  .00000680  00000-0  89972-4 0  9990
2 39417  97.6192   4.5682 0059078 148.8828 211.5906 14.81792455442092
Epoch (UTC): 26 January 2022 10:47:11
Eccentricity: 0.0059078
inclination: 97.6192°
perigee height: 582 km
apogee height: 665 km
right ascension of ascending node: 4.5682°
argument of perigee: 148.8828°
revolutions per day: 14.81792455
mean anomaly at epoch: 211.5906°
orbit number at epoch: 44209

The dashed part of the orbit path shows where the satellite is in the earth's shadow,  

DLR